Thermopolis, WY

5:52 PM MST on February 24, 2018 (GMT -0700)
Thermopolis

Weather History for KTBX - January, 2013

Change the Weather History Date:

Thursday, January 10, 2013

  Actual Average (KWRL) Record (KWRL)
Temperature  
Mean Temperature 29 °F -  
Max Temperature 32 °F 27 °F 61 °F (1995)
Min Temperature 21 °F 2 °F -38 °F (1962)
Degree Days  
Heating Degree Days 36    
Moisture  
Dew Point 19 °F    
Average Humidity 68    
Maximum Humidity 93    
Minimum Humidity 64    
Precipitation  
Precipitation 0.00 in - - ()
Sea Level Pressure  
Sea Level Pressure 29.60 in    
Wind  
Wind Speed 27 mph (SE)    
Max Wind Speed 37 mph    
Max Gust Speed 40 mph    
Visibility 10 miles    
Events Snow    
Averages and records for this station are not official NWS values.
T = Trace of Precipitation, MM = Missing Value Source: NWS Daily Summary

Daily Weather History Graph

Daily Weather History Graph

Search for Another Location

Airport or City:

Trip Planner

Search our weather history database for the weather conditions in past years. The results will help you decide how hot, cold, wet, or windy it might be!

Date:

Astronomy

Jan. 10, 2013 Rise Set
Actual Time 7:44 AM MST 4:56 PM MST
Civil Twilight 7:12 AM MST 5:28 PM MST
Nautical Twilight 6:37 AM MST 6:04 PM MST
Astronomical Twilight 6:02 AM MST 6:39 PM MST
Moon 6:27 AM MST (1/10) 4:08 PM MST (1/10)
Length of Visible Light 10h 16m
Length of Day
9h 12m
Waning Crescent, 2% of the Moon is Illuminated
Jan 10
Waning Crescent
Jan 11
New
Jan 18
First Quarter
Jan 26
Full
Feb 3
Last Quarter

Hourly Weather History & Observations

Time (MST) Temp. Windchill Dew Point Humidity Pressure Visibility Wind Dir Wind Speed Gust Speed Precip Events Conditions
1:35 AM 26.6 °F 9.8 °F 17.6 °F 69% 29.83 in 10.0 mi SE 32.2 mph - N/A   Clear
1:55 AM 26.6 °F 9.6 °F 17.6 °F 69% 29.82 in 10.0 mi SE 33.4 mph 40.3 mph N/A   Clear
2:15 AM 26.6 °F 10.0 °F 17.6 °F 69% 29.82 in 10.0 mi SE 31.1 mph - N/A   Clear
2:35 AM 26.6 °F 8.9 °F 17.6 °F 69% 29.80 in 10.0 mi SE 36.8 mph - N/A   Clear
3:15 AM 26.6 °F 10.8 °F 17.6 °F 69% 29.80 in 10.0 mi SE 27.6 mph 40.3 mph N/A   Clear
3:35 AM 26.6 °F 10.6 °F 17.6 °F 69% 29.78 in 10.0 mi SE 28.8 mph 38.0 mph N/A   Clear
3:55 AM 26.6 °F 11.7 °F 17.6 °F 69% 29.78 in 10.0 mi SE 24.2 mph 36.8 mph N/A   Clear
4:35 AM 26.6 °F 10.3 °F 17.6 °F 69% 29.74 in 10.0 mi SE 29.9 mph - N/A   Clear
4:55 AM 26.6 °F 10.6 °F 17.6 °F 69% 29.73 in 10.0 mi SE 28.8 mph - N/A   Clear
5:15 AM 26.6 °F 10.6 °F 17.6 °F 69% 29.72 in 10.0 mi ESE 28.8 mph - N/A   Clear
5:35 AM 26.6 °F 10.3 °F 17.6 °F 69% 29.71 in 10.0 mi ESE 29.9 mph - N/A   Clear
6:15 AM 26.6 °F 11.1 °F 17.6 °F 69% 29.70 in 10.0 mi ESE 26.5 mph 33.4 mph N/A   Clear
6:35 AM 26.6 °F 10.3 °F 17.6 °F 69% 29.69 in 10.0 mi ESE 29.9 mph 34.5 mph N/A   Clear
6:55 AM 26.6 °F 9.8 °F 17.6 °F 69% 29.70 in 10.0 mi SE 32.2 mph 38.0 mph N/A   Clear
7:15 AM 26.6 °F 10.3 °F 17.6 °F 69% 29.69 in 10.0 mi ESE 29.9 mph - N/A   Clear
7:35 AM 26.6 °F 10.6 °F 17.6 °F 69% 29.70 in 10.0 mi SE 28.8 mph - N/A   Clear
7:55 AM 26.6 °F 11.4 °F 17.6 °F 69% 29.69 in 10.0 mi ESE 25.3 mph - N/A   Clear
8:15 AM 26.6 °F 11.1 °F 17.6 °F 69% 29.69 in 10.0 mi ESE 26.5 mph 31.1 mph N/A   Clear
8:35 AM 28.4 °F 14.1 °F 17.6 °F 64% 29.69 in 10.0 mi SE 24.2 mph 34.5 mph N/A   Clear
8:55 AM 28.4 °F 13.8 °F 17.6 °F 64% 29.68 in 10.0 mi ESE 25.3 mph 31.1 mph N/A   Clear
9:15 AM 26.6 °F 11.1 °F 17.6 °F 69% 29.67 in 10.0 mi ESE 26.5 mph 31.1 mph N/A   Clear
9:35 AM 26.6 °F 11.4 °F 17.6 °F 69% 29.67 in 10.0 mi ESE 25.3 mph - N/A   Clear
9:55 AM 28.4 °F 14.4 °F 17.6 °F 64% 29.66 in 10.0 mi ESE 23.0 mph - N/A   Clear
10:15 AM 28.4 °F 14.1 °F 17.6 °F 64% 29.66 in 10.0 mi ESE 24.2 mph - N/A   Clear
10:35 AM 28.4 °F 13.3 °F 19.4 °F 69% 29.65 in 10.0 mi SE 27.6 mph - N/A   Clear
10:55 AM 28.4 °F 13.3 °F 19.4 °F 69% 29.63 in 10.0 mi SE 27.6 mph 32.2 mph N/A   Clear
11:15 AM 28.4 °F 13.3 °F 19.4 °F 69% 29.62 in 10.0 mi SE 27.6 mph 31.1 mph N/A   Clear
11:35 AM 30.2 °F 16.5 °F 19.4 °F 64% 29.62 in 10.0 mi SE 24.2 mph - N/A   Clear
11:55 AM 30.2 °F 15.7 °F 19.4 °F 64% 29.60 in 10.0 mi ESE 27.6 mph - N/A   Clear
12:15 PM 30.2 °F 16.5 °F 19.4 °F 64% 29.59 in 10.0 mi SE 24.2 mph - N/A   Clear
12:35 PM 30.2 °F 17.1 °F 21.2 °F 69% 29.58 in 10.0 mi ESE 21.9 mph 27.6 mph N/A   Clear
1:15 PM 32.0 °F 21.2 °F 21.2 °F 64% 29.57 in 10.0 mi ESE 16.1 mph - N/A   Clear
1:35 PM 32.0 °F 20.5 °F 21.2 °F 64% 29.57 in 10.0 mi ESE 18.4 mph - N/A   Clear
1:55 PM 32.0 °F 21.2 °F 21.2 °F 64% 29.57 in 10.0 mi ESE 16.1 mph - N/A   Clear
2:15 PM 32.0 °F 20.5 °F 21.2 °F 64% 29.57 in 10.0 mi ESE 18.4 mph - N/A   Clear
2:35 PM 32.0 °F 19.5 °F 21.2 °F 64% 29.56 in 10.0 mi SE 21.9 mph - N/A   Clear
2:55 PM 32.0 °F 21.6 °F 21.2 °F 64% 29.56 in 10.0 mi ESE 15.0 mph - N/A   Clear
3:15 PM 32.0 °F 21.2 °F 21.2 °F 64% 29.56 in 10.0 mi SE 16.1 mph - N/A   Clear
3:35 PM 32.0 °F 21.6 °F 21.2 °F 64% 29.56 in 10.0 mi ESE 15.0 mph - N/A   Clear
4:15 PM 32.0 °F 19.8 °F 21.2 °F 64% 29.54 in 10.0 mi ESE 20.7 mph 27.6 mph N/A   Clear
4:35 PM 32.0 °F 19.5 °F 21.2 °F 64% 29.53 in 10.0 mi SE 21.9 mph 31.1 mph N/A   Clear
4:55 PM 32.0 °F 20.5 °F 23.0 °F 69% 29.52 in 10.0 mi ESE 18.4 mph - N/A   Clear
5:15 PM 32.0 °F 19.8 °F 23.0 °F 69% 29.52 in 10.0 mi ESE 20.7 mph - N/A   Clear
5:35 PM 32.0 °F 20.1 °F 23.0 °F 69% 29.52 in 10.0 mi ESE 19.6 mph 25.3 mph N/A   Clear
5:55 PM 32.0 °F 19.5 °F 23.0 °F 69% 29.51 in 10.0 mi SE 21.9 mph 27.6 mph N/A   Clear
6:15 PM 32.0 °F 19.2 °F 21.2 °F 64% 29.51 in 10.0 mi SE 23.0 mph - N/A   Clear
6:35 PM 30.2 °F 18.5 °F 21.2 °F 69% 29.51 in 10.0 mi SE 17.3 mph - N/A   Clear
6:55 PM 30.2 °F 17.1 °F 21.2 °F 69% 29.50 in 10.0 mi SE 21.9 mph 25.3 mph N/A   Clear
7:15 PM 30.2 °F 17.1 °F 21.2 °F 69% 29.49 in 10.0 mi SE 21.9 mph 27.6 mph N/A   Clear
7:35 PM 30.2 °F 16.5 °F 21.2 °F 69% 29.48 in 10.0 mi SE 24.2 mph 34.5 mph N/A   Clear
7:55 PM 28.4 °F 13.5 °F 21.2 °F 74% 29.47 in 10.0 mi SE 26.5 mph 32.2 mph N/A   Clear
8:15 PM 28.4 °F 13.5 °F 19.4 °F 69% 29.47 in 10.0 mi SE 26.5 mph - N/A   Clear
8:35 PM 28.4 °F 13.5 °F 19.4 °F 69% 29.46 in 10.0 mi SE 26.5 mph 34.5 mph N/A   Clear
8:55 PM 28.4 °F 13.8 °F 19.4 °F 69% 29.46 in 10.0 mi SE 25.3 mph - N/A   Clear
9:15 PM 28.4 °F 12.7 °F 19.4 °F 69% 29.45 in 10.0 mi ESE 29.9 mph - N/A   Scattered Clouds
9:35 PM 26.6 °F 9.8 °F 19.4 °F 74% 29.43 in 10.0 mi ESE 32.2 mph 39.1 mph N/A   Scattered Clouds
9:55 PM 26.6 °F 9.6 °F 19.4 °F 74% 29.43 in 10.0 mi ESE 33.4 mph - N/A   Scattered Clouds
10:15 PM 26.6 °F 9.8 °F 19.4 °F 74% 29.42 in 10.0 mi SE 32.2 mph - N/A   Mostly Cloudy
10:35 PM 26.6 °F 10.3 °F 19.4 °F 74% 29.42 in 10.0 mi SE 29.9 mph 35.7 mph N/A   Mostly Cloudy
10:55 PM 28.4 °F 14.4 °F 19.4 °F 69% 29.44 in 10.0 mi SE 23.0 mph - N/A   Mostly Cloudy
11:15 PM 28.4 °F 16.6 °F 19.4 °F 69% 29.45 in 10.0 mi ESE 16.1 mph 25.3 mph N/A   Overcast
11:35 PM 26.6 °F 21.2 °F 19.4 °F 74% 29.45 in 10.0 mi North 4.6 mph - N/A   Overcast
11:55 PM 21.2 °F 10.1 °F 19.4 °F 93% 29.45 in 0.2 mi NNW 10.4 mph - N/A Snow Light Snow